Regional Weather Roundup
Issued by NWS

Home | Current Version | Previous Version | Graphics & Text | Print | Product List | Glossary On
Versions: 1 2 3 4 5 6 7 8 9 10 11 12 13 14 15 16 17 18 19 20 21 22 23 24 25 26 27 28 29 30 31 32 33 34 35 36 37 38 39 40 41 42 43 44 45 46 47 48 49 50
000
ASUS43 KDMX 190606
RWRIA

WEATHER ROUNDUP FOR IOWA
NATIONAL WEATHER SERVICE DES MOINES IA
1200 AM CST MON FEB 19 2018

NOTE: "FAIR" INDICATES FEW OR NO CLOUDS BELOW 12,000 FEET WITH NO
SIGNIFICANT WEATHER AND/OR OBSTRUCTIONS TO VISIBILITY.

* - THESE STATIONS ARE NOT NWS STATIONS...THUS NOT UNDER NWS
QUALITY CONTROL.  THEY ALSO DO NOT REPORT WEATHER SUCH
AS PRECIPITATION OR FOG.

IAZ001>003-012>014-020>022-031>034-043>046-190700-
   NORTHWEST IOWA

CITY           SKY/WX    TMP DP  RH WIND       PRES   REMARKS
CARROLL *      CLOUDY    39  34  81 CALM      29.66R
CHEROKEE *     CLOUDY    29  24  81 N16       29.72R WCI  18
DENISON *      CLOUDY    37  34  87 NW3       29.67R
LE MARS *      CLOUDY    27  21  80 N24       29.73R WCI  12
ORANGE CITY *  CLOUDY    25  21  86 N17G25    29.72R WCI  11
SHELDON *      CLOUDY    23  19  86 N22       29.72R WCI   8
SIOUX CITY     CLOUDY    30  25  81 N29       29.70S WCI  15
6HR MIN TEMP:  30; 6HR MAX TEMP:  43;

SPENCER        PTCLDY    25  19  78 N22G29    29.72R WCI  10
6HR MIN TEMP:  25; 6HR MAX TEMP:  40;

STORM LAKE *   CLOUDY    32  28  86 N18       29.68R WCI  20
$$

IAZ055>058-069>071-079>083-090>094-190700-
   SOUTHWEST IOWA

CITY           SKY/WX    TMP DP  RH WIND       PRES   REMARKS
ATLANTIC *     CLOUDY    46  39  76 S8        29.65S
AUDUBON *      CLOUDY    43  37  81 CALM      29.66S
CLARINDA *     CLOUDY    48  41  76 SE5       29.68S
COUNCIL BLFS * CLOUDY    37  37 100 N10       29.65R WCI  30
CRESTON *      CLOUDY    45  34  65 SE7       29.69S
HARLAN  *      CLOUDY    41  39  93 CALM      29.68R
LAMONI         CLOUDY    48  33  56 SE6       29.70R
6HR MIN TEMP:  48; 6HR MAX TEMP:  51;

RED OAK *      CLOUDY    46  39  76 S5        29.65S
SHENANDOAH *   CLOUDY    48  43  81 E5        29.65S
$$

IAZ047>049-059>061-072>074-084-190700-
   CENTRAL IOWA

CITY           SKY/WX    TMP DP  RH WIND       PRES   REMARKS
AMES           CLOUDY    40  32  73 SE6       29.69R
6HR MIN TEMP:  38; 6HR MAX TEMP:  43;

ANKENY *       CLOUDY    43  32  65 S5        29.71R
BOONE *        CLOUDY    39  34  81 S7        29.67S WCI  34
CHARITON *     CLOUDY    46  34  61 S12       29.71R
DES MOINES     CLOUDY    44  33  65 S8        29.70R
6HR MIN TEMP:  43; 6HR MAX TEMP:  48;

GRINNELL*      CLOUDY    41  32  69 SE9       29.72S
KNOXVILLE *    CLOUDY    46  30  53 S9G16     29.70S
MARSHALLTOWN   CLOUDY    39  32  76 SE7       29.71R WCI  34
6HR MIN TEMP:  37; 6HR MAX TEMP:  41;

NEWTON *       CLOUDY    39  34  81 S8        29.71S WCI  34
PELLA *        CLOUDY    46  32  59 S8        29.73R
PERRY *        CLOUDY    35  32  87 SE5       29.68R WCI  31
$$

IAZ004>006-015-016-023>025-035-036-190700-
   NORTH CENTRAL IOWA

CITY           SKY/WX    TMP DP  RH WIND       PRES   REMARKS
ALGONA *       CLOUDY    32 N/A N/A N12G21    29.71R WCI  23
CLARION *      CLOUDY    37  37 100 W9        29.69R WCI  31
ESTHERVILLE    CLEAR     23  19  85 N22G28    29.72R WCI   8
6HR MIN TEMP:  23; 6HR MAX TEMP:  36;

FORT DODGE *   CLOUDY    39  31  72 NW3       29.68R
MASON CITY     CLOUDY    37  31  78 VRB3      29.71R
6HR MIN TEMP:  35; 6HR MAX TEMP:  37;

FOREST CITY *  CLOUDY    36  32  87 CALM      29.69S
WEBSTER CITY * CLOUDY    37  32  81 S12       29.66R WCI  30
IOWA FALLS *   CLOUDY    37  33  85 SE10      29.70R WCI  29
$$

IAZ007>011-017>019-026>030-037>042-050>054-066-190700-
   NORTHEAST IOWA

CITY           SKY/WX    TMP DP  RH WIND       PRES   REMARKS
CEDAR RAPIDS   CLOUDY    41  30  65 S8        29.74S
6HR MIN TEMP:  41; 6HR MAX TEMP:  43;

CHARLES CITY * CLOUDY    37  34  87 SE10      29.70S WCI  30
CLINTON *        N/A     38  32  79 MISG        N/A
DECORAH *      CLOUDY    37  30  75 SE9       29.71S WCI  31
DUBUQUE        CLOUDY    36  29  75 S12       29.77F WCI  28
6HR MIN TEMP:  36; 6HR MAX TEMP:  37;

MONTICELLO *   CLOUDY    39  32  75 SE7       29.77S WCI  34
OELWEIN *      CLOUDY    36  36 100 SE12      29.73S WCI  27
WATERLOO       CLOUDY    38  31  76 S8        29.72R WCI  32
6HR MIN TEMP:  37; 6HR MAX TEMP:  39;

$$

IAZ064-065-067-068-078-190700-
   EAST CENTRAL IOWA

CITY           SKY/WX    TMP DP  RH WIND       PRES   REMARKS
DAVENPORT      CLOUDY    43  32  65 S17       29.80F
6HR MIN TEMP:  40; 6HR MAX TEMP:  43;

IOWA CITY      CLOUDY    40  30  67 SE5       29.78S
6HR MIN TEMP:  39; 6HR MAX TEMP:  43;

MT. PLEASANT * CLOUDY    43  32  65 S10       29.78S
MUSCATINE *    CLOUDY    41  32  70 S7        29.79S
QUAD CITIES    CLOUDY    44  34  67 S10       29.79S
6HR MIN TEMP:  40; 6HR MAX TEMP:  44;

$$

IAZ062-063-075>077-085>089-095>099-190700-
   SOUTHEAST IOWA

CITY           SKY/WX    TMP DP  RH WIND       PRES   REMARKS
BURLINGTON     CLOUDY    44  31  60 S10       29.79F
6HR MIN TEMP:  44; 6HR MAX TEMP:  45;

FAIRFIELD *    CLOUDY    43  30  61 S10       29.75S
FORT MADISON * CLOUDY    45  34  65 S10       29.79F
KEOKUK *       CLOUDY    48  34  57 S9        29.79F
OSKALOOSA *    CLOUDY    39  32  76 S9        29.74R WCI  33
OTTUMWA        CLOUDY    46  30  53 S12       29.73S
6HR MIN TEMP:  45; 6HR MAX TEMP:  49;

WASHINGTON *   CLOUDY    39  34  81 S9        29.77S WCI  33
$$

ABBREVIATIONS USED IN REMARKS
   TC - TEMPERATURES IN CELSIUS
  WCI - WIND CHILL INDEX
   HX - HEAT INDEX
  VSB - VISIBILITY
$$





USA.gov is the U.S. government's official web portal to all federal, state and local government web resources and services.